Kennedale's Hourly Summary for Friday, March 17, 2017
Hour Temp
(f)
RH
(%)
Solar Rad.
(MJ/m2)
Rainfall
(in)
Wind
(mph)
3/17/2017 12:00 AM 66 80 19.95 0 12.01
3/17/2017 1:00 AM 66 81 19.95 0 12.8
3/17/2017 2:00 AM 65 82 19.95 0 12.36
3/17/2017 3:00 AM 66 78 19.95 0 13.64
3/17/2017 4:00 AM 67 78 19.95 0 14.71
3/17/2017 5:00 AM 67 78 19.95 0 13.03
3/17/2017 6:00 AM 67 78 19.95 0 11.35
3/17/2017 7:00 AM 67 77 19.95 0 10.29
3/17/2017 8:00 AM 66 78 19.95 0 9.67
3/17/2017 9:00 AM 67 80 19.95 0 9.85
3/17/2017 10:00 AM 68 78 19.95 0 12.13
3/17/2017 11:00 AM 69 77 19.95 0 11.8
3/17/2017 12:00 PM 70 74 19.95 0 11.63
3/17/2017 1:00 PM 72 69 19.95 0 11.8
3/17/2017 2:00 PM 73 68 19.95 0 12.64
3/17/2017 3:00 PM 73 67 19.95 0 10.46
3/17/2017 4:00 PM 75 62 19.95 0 12.3
3/17/2017 5:00 PM 76 60 19.95 0 12.08
3/17/2017 6:00 PM 76 58 19.95 0 10.96
3/17/2017 7:00 PM 75 60 19.95 0 7.89
3/17/2017 8:00 PM 73 62 19.95 0 6.32
3/17/2017 9:00 PM 72 65 19.95 0 5.87
3/17/2017 10:00 PM 71 68 19.95 0 7.55
3/17/2017 11:00 PM 69 72 19.95 0 6.38
Data Summary 69 72 478.80 0.00 10.81